Location: College Rock
(37.2713°N, 119.1740°W)
Time: 04:33:25
(UTC+00:00)

Cosmos 1190 Rocket - Pass Details

Date: 29 October 2020
Orbit: 757 x 779 km, 74.1° (Epoch: 23 November)

Event Time Altitude Azimuth Distance (km) Brightness Sun altitude
Rises 13:46:42 0° 212° (SSW) 3,227 7.0 -7.0°
Reaches altitude 10° 13:49:09 10° 218° (SW) 2,301 6.2 -6.6°
Maximum altitude 13:54:11 48° 292° (WNW) 1,000 4.2 -5.6°
Drops below altitude 10° 13:59:13 10° 6° (N) 2,301 6.4 -4.6°
Sets 14:01:41 0° 12° (NNE) 3,228 7.2 -4.1°
